Tracking 35274 objects as of 11-Sep-2026
HD Live streaming from Space Station
objects crossing your sky now

STARLINK-3998

Track STARLINK-3998 now!
10-day predictions
STARLINK-3998 is classified as:


NORAD ID: 52610
Int'l Code: 2022-052N
Launch date: May 14, 2022
Source: United States (US)
Launch site: AIR FORCE EASTERN TEST RANGE (AFETR)
Your satellite tracking list
Your tracking list is empty




NASA's NSSDC Master Catalog

Two Line Element Set (TLE):
1 52610U 22052N   26254.18993110 -.00000075  00000-0  87485-5 0  9996
2 52610  53.1590 159.8807 0001440  99.4871 260.6295 15.35399999238931
Source of the keplerian elements: AFSPC